Weather History for Fort Indiantown Gap, PA

Change the Weather History Date:

Friday, October 12, 2012

  Actual Average Record
Temperature  
Mean Temperature 44 °F -  
Max Temperature 56 °F 62 °F 74 °F (2008)
Min Temperature 32 °F 45 °F 32 °F (2012)
Degree Days  
Heating Degree Days 21    
Moisture  
Dew Point 31 °F    
Average Humidity 64    
Maximum Humidity 98    
Minimum Humidity 30    
Precipitation  
Precipitation 0.00 in - - ()
Sea Level Pressure  
Sea Level Pressure 30.26 in    
Wind  
Wind Speed 3 mph (NNW)    
Max Wind Speed 13 mph    
Max Gust Speed 24 mph    
Visibility 10 miles    
Events      
Averages and records for this station are not official NWS values.
T = Trace of Precipitation, MM = Missing Value Source: NWS Daily Summary

Daily Weather History Graph

Daily Weather History Graph

Search for Another Location

Airport:

Trip Planner

Search our weather history database for the weather conditions in past years. The results will help you decide how hot, cold, wet, or windy it might be!

Date:

Astronomy

Oct. 12, 2012 Rise Set
Actual Time 7:14 AM EDT 6:30 PM EDT
Civil Twilight 6:47 AM EDT 6:57 PM EDT
Nautical Twilight 6:15 AM EDT 7:29 PM EDT
Astronomical Twilight 5:43 AM EDT 8:00 PM EDT
Moon 3:54 AM EDT (10/12) 4:39 PM EDT (10/12)
Length of Visible Light 12h 10m
Length of Day
11h 15m
Waning Crescent, 11% of the Moon is Illuminated
Oct 12
Waning Crescent
Oct 15
New
Oct 21
First Quarter
Oct 29
Full
Nov 6
Last Quarter

Hourly Weather History & Observations

Time (EDT) Temp. Windchill Dew Point Humidity Pressure Visibility Wind Dir Wind Speed Gust Speed Precip Events Conditions
12:55 AM 36.3 °F - 35.1 °F 95% 30.17 in 10.0 mi Calm Calm - N/A   Clear
1:55 AM 35.4 °F - 34.5 °F 97% 30.16 in 10.0 mi Calm Calm - N/A   Clear
2:55 AM 34.9 °F - 34.0 °F 97% 30.14 in 10.0 mi Calm Calm - N/A   Clear
3:55 AM 34.2 °F - 33.3 °F 97% 30.13 in 10.0 mi Calm Calm - N/A   Clear
4:55 AM 32.7 °F - 32.2 °F 98% 30.13 in 10.0 mi Calm Calm - N/A   Clear
5:55 AM 33.6 °F - 32.9 °F 97% 30.12 in 10.0 mi Calm Calm - N/A   Scattered Clouds
6:55 AM 36.0 °F - 35.2 °F 97% 30.13 in 10.0 mi Calm Calm - N/A   Clear
7:55 AM 37.8 °F - 36.9 °F 97% 30.14 in 10.0 mi Calm Calm - N/A   Mostly Cloudy
8:55 AM 52.3 °F - 34.2 °F 50% 30.16 in 10.0 mi West 9.2 mph - N/A   Partly Cloudy
9:55 AM 53.6 °F - 35.4 °F 50% 30.19 in 10.0 mi Variable 6.9 mph - N/A   Partly Cloudy
10:55 AM 53.2 °F - 36.7 °F 53% 30.23 in 10.0 mi North 11.5 mph 23.0 mph N/A   Mostly Cloudy
11:55 AM 50.5 °F - 36.3 °F 58% 30.26 in 10.0 mi NW 4.6 mph 17.3 mph N/A   Mostly Cloudy
12:24 PM 51.8 °F - 32.0 °F 47% 30.26 in 10.0 mi West 12.7 mph 19.6 mph N/A   Mostly Cloudy
12:55 PM 52.5 °F - 33.4 °F 48% 30.27 in 10.0 mi Variable 6.9 mph - N/A   Scattered Clouds
1:55 PM 53.1 °F - 31.6 °F 44% 30.27 in 10.0 mi NNW 9.2 mph - N/A   Partly Cloudy
2:55 PM 54.5 °F - 28.8 °F 37% 30.26 in 10.0 mi North 9.2 mph 24.2 mph N/A   Mostly Cloudy
3:55 PM 56.5 °F - 26.8 °F 32% 30.27 in 10.0 mi NNW 9.2 mph - N/A   Partly Cloudy
4:55 PM 55.8 °F - 24.8 °F 30% 30.29 in 10.0 mi NNW 10.4 mph - N/A   Partly Cloudy
5:55 PM 52.7 °F - 24.8 °F 34% 30.32 in 10.0 mi North 8.1 mph - N/A   Clear
6:55 PM 48.9 °F - 22.8 °F 36% 30.36 in 10.0 mi Variable 6.9 mph - N/A   Clear
7:55 PM 45.7 °F 44.4 °F 25.2 °F 45% 30.38 in 10.0 mi Variable 3.5 mph - N/A   Clear
8:55 PM 42.8 °F 40.1 °F 28.0 °F 56% 30.40 in 10.0 mi North 4.6 mph - N/A   Clear
9:55 PM 39.7 °F 35.6 °F 27.3 °F 61% 30.42 in 10.0 mi North 5.8 mph - N/A   Clear
10:55 PM 39.7 °F 37.6 °F 24.8 °F 55% 30.45 in 10.0 mi NNE 3.5 mph - N/A   Clear
11:55 PM 34.7 °F - 28.6 °F 78% 30.48 in 10.0 mi Calm Calm - N/A   Clear